Location: Kaarina
(60.4167°N, 22.4167°E)
Time: 11:23:12
(UTC+03:00)

COSMOS 2487 - Pass Details

Date: 24 August 2019
Orbit: 444 x 450 km, 74.7° (Epoch: 18 September)

Event Time Altitude Azimuth Distance (km) Brightness Sun altitude
Exits shadow 23:41:13 14° 92° (E) 1,341 4.5 -15.2°
Drops below altitude 10° 23:42:51 10° 65° (ENE) 1,593 5.1 -15.3°
Sets 23:45:38 0° 41° (NE) 2,473 6.5 -15.5°
